Location: Quaker Farms
(41.4276°N, 73.1557°W)
Time: 00:55:45
(UTC+00:00)

Altair - Pass Details

Date: 18 June 2021
Orbit: 1501 x 1682 km, 47.2° (Epoch: 23 July)

Event Time Altitude Azimuth Distance (km) Brightness Sun altitude
Rises 22:09:14 0° 286° (WNW) 4,773 11.5 23.4°
Reaches altitude 10° 22:12:20 10° 289° (WNW) 3,812 11.6 22.8°
Maximum altitude 22:22:05 68° 13° (NNE) 1,749 8.2 21.0°
Drops below altitude 10° 22:32:08 10° 96° (E) 3,929 9.1 19.2°
Sets 22:35:22 0° 99° (E) 4,925 9.5 18.6°
